,,Stat5,,Stat1,,Stat2,,Stat3,,Stat4,,Wind1,,Wind1,
time,status,PA1M_AVG,status,PR1M_SUM,status,RH1M_AVG,status,SR1M_AVG,status,TA1M_AVG,status,W1dAve1m,status,W1sAve1m,
2000-05-05, 00:00:00,VALID,919.448,VALID,0,VALID,93.4121,VALID,0,VALID,20.1284,VALID,139,VALID,0,
2000-05-05, 00:01:00,VALID,919.427,VALID,0,VALID,93.262,VALID,0,VALID,20.1083,VALID,139,VALID,0,
2000-05-05, 00:02:00,VALID,919.417,VALID,0,VALID,93.2404,VALID,-0.0339617,VALID,20.0924,VALID,139,VALID,0,
2000-05-05, 00:03:01,VALID,919.399,VALID,0,VALID,93.2747,VALID,0,VALID,20.0792,VALID,144,VALID,0,
2000-05-05, 00:04:00,VALID,919.385,VALID,0,VALID,93.3434,VALID,-0.0169808,VALID,20.0668,VALID,145,VALID,0,
2000-05-05, 00:05:00,VALID,919.358,VALID,0,VALID,93.4782,VALID,-0.0169808,VALID,20.0439,VALID,145,VALID,0,
2000-05-05, 00:06:00,VALID,919.333,VALID,0,VALID,93.5748,VALID,-0.0509425,VALID,20.0245,VALID,145,VALID,0,
2000-05-05, 00:07:00,VALID,919.322,VALID,0,VALID,93.4871,VALID,-0.0169808,VALID,20.0148,VALID,145,VALID,0,
2000-05-05, 00:08:01,VALID,919.302,VALID,0,VALID,93.5062,VALID,0.0679233,VALID,20.0039,VALID,145,VALID,0,
2000-05-05, 00:09:00,VALID,919.279,VALID,0,VALID,93.5609,VALID,0.0679233,VALID,19.991,VALID,145,VALID,0,
2000-05-05, 00:10:00,VALID,919.258,VALID,0,VALID,93.5113,VALID,0.0849042,VALID,19.9815,VALID,145,VALID,0,
2000-05-05, 00:11:01,VALID,919.245,VALID,0,VALID,93.5481,VALID,0.101885,VALID,19.9815,VALID,145,VALID,0,
2000-05-05, 00:12:00,VALID,919.23,VALID,0,VALID,93.4528,VALID,0.101885,VALID,19.9746,VALID,145,VALID,0,
2000-05-05, 00:13:00,VALID,919.216,VALID,0,VALID,93.2951,VALID,0.0849042,VALID,19.981,VALID,145,VALID,0,
2000-05-05, 00:14:01,VALID,919.198,VALID,0,VALID,93.1323,VALID,0.0849042,VALID,19.9619,VALID,145,VALID,0,
2000-05-05, 00:15:00,VALID,919.177,VALID,0,VALID,93.1145,VALID,0.101885,VALID,19.9231,VALID,145,VALID,0,
2000-05-05, 00:16:01,VALID,919.161,VALID,0,VALID,93.2964,VALID,0.101885,VALID,19.8841,VALID,166,VALID,0,
2000-05-05, 00:17:00,VALID,919.151,VALID,0,VALID,93.4273,VALID,0.118866,VALID,19.8583,VALID,259,VALID,0,
2000-05-05, 00:18:00,VALID,919.129,VALID,0,VALID,93.4846,VALID,0.101885,VALID,19.8096,VALID,275,VALID,0,
2000-05-05, 00:19:01,VALID,919.114,VALID,0,VALID,93.6867,VALID,0.118866,VALID,19.8133,VALID,277,VALID,0,
2000-05-05, 00:20:01,VALID,919.075,VALID,0,VALID,93.7732,VALID,0.101885,VALID,19.8294,VALID,277,VALID,0,
2000-05-05, 00:21:01,VALID,919.064,VALID,0,VALID,93.716,VALID,0.0849042,VALID,19.8421,VALID,277,VALID,0,
2000-05-05, 00:22:01,VALID,919.045,VALID,0,VALID,93.6041,VALID,0.0679233,VALID,19.8453,VALID,277,VALID,0,
2000-05-05, 00:23:01,VALID,919.057,VALID,0,VALID,93.4299,VALID,0,VALID,19.8826,VALID,277,VALID,0,
2000-05-05, 00:24:00,VALID,919.049,VALID,0,VALID,93.2468,VALID,0,VALID,19.9182,VALID,277,VALID,0,
2000-05-05, 00:25:00,VALID,919.047,VALID,0,VALID,93.0687,VALID,0,VALID,19.9376,VALID,277,VALID,0,
2000-05-05, 00:26:01,VALID,919.04,VALID,0,VALID,92.9365,VALID,-0.0169808,VALID,19.9343,VALID,277,VALID,0,
2000-05-05, 00:27:00,VALID,919.048,VALID,0,VALID,92.9772,VALID,0,VALID,19.9376,VALID,277,VALID,0,
2000-05-05, 00:28:01,VALID,919.058,VALID,0,VALID,92.9734,VALID,0.0169808,VALID,19.9311,VALID,277,VALID,0,
2000-05-05, 00:29:00,VALID,919.061,VALID,0,VALID,93.0865,VALID,-0.0339617,VALID,19.9246,VALID,277,VALID,0,
2000-05-05, 00:30:01,VALID,919.065,VALID,0,VALID,93.0611,VALID,-0.0339617,VALID,19.9214,VALID,277,VALID,0,
2000-05-05, 00:31:01,VALID,919.055,VALID,0,VALID,93.0827,VALID,-0.0169808,VALID,19.9249,VALID,277,VALID,0,
2000-05-05, 00:32:01,VALID,919.052,VALID,0,VALID,93.0102,VALID,-0.0169808,VALID,19.9152,VALID,272,VALID,0,
2000-05-05, 00:33:01,VALID,919.051,VALID,0,VALID,92.8538,VALID,0,VALID,19.9149,VALID,208,VALID,0,
2000-05-05, 00:34:01,VALID,919.044,VALID,0,VALID,92.5436,VALID,0.0169808,VALID,19.8697,VALID,119,VALID,0,
2000-05-05, 00:35:01,VALID,919.039,VALID,0,VALID,93.1285,VALID,0,VALID,19.7693,VALID,115,VALID,0,
2000-05-05, 00:36:01,VALID,919.052,VALID,0,VALID,93.557,VALID,-0.0169808,VALID,19.6925,VALID,115,VALID,0,
2000-05-05, 00:37:01,VALID,919.032,VALID,0,VALID,93.6524,VALID,0,VALID,19.6368,VALID,114,VALID,0,
2000-05-05, 00:38:01,VALID,919.016,VALID,0,VALID,94.0987,VALID,-0.0169808,VALID,19.6048,VALID,114,VALID,0,
2000-05-05, 00:39:01,VALID,919.016,VALID,0,VALID,94.4637,VALID,-0.0169808,VALID,19.5951,VALID,114,VALID,0,
2000-05-05, 00:40:01,VALID,918.999,VALID,0,VALID,94.512,VALID,-0.0339617,VALID,19.5951,VALID,114,VALID,0,
2000-05-05, 00:41:01,VALID,918.987,VALID,0,VALID,94.4713,VALID,0,VALID,19.6016,VALID,114,VALID,0,
2000-05-05, 00:42:01,VALID,918.979,VALID,0,VALID,94.5845,VALID,-0.0339617,VALID,19.6175,VALID,116,VALID,0,
2000-05-05, 00:43:01,VALID,918.96,VALID,0,VALID,94.4967,VALID,-0.0509425,VALID,19.6304,VALID,116,VALID,0,
2000-05-05, 00:44:01,VALID,918.944,VALID,0,VALID,93.9856,VALID,-0.0339617,VALID,19.6344,VALID,117,VALID,0,
2000-05-05, 00:45:01,VALID,918.929,VALID,0,VALID,93.9474,VALID,-0.0169808,VALID,19.6108,VALID,121,VALID,0,
2000-05-05, 00:46:01,VALID,918.923,VALID,0,VALID,94.1827,VALID,-0.0169808,VALID,19.6239,VALID,121,VALID,0,
2000-05-05, 00:47:01,VALID,918.901,VALID,0,VALID,94.2297,VALID,-0.0339617,VALID,19.6373,VALID,121,VALID,0,
2000-05-05, 00:48:01,VALID,918.881,VALID,0,VALID,94.1471,VALID,-0.0509425,VALID,19.6436,VALID,121,VALID,0,
2000-05-05, 00:49:01,VALID,918.857,VALID,0,VALID,94.0339,VALID,-0.0509425,VALID,19.6629,VALID,121,VALID,0,
2000-05-05, 00:50:01,VALID,918.847,VALID,0,VALID,93.9423,VALID,0,VALID,19.6595,VALID,121,VALID,0,
2000-05-05, 00:51:01,VALID,918.835,VALID,0,VALID,93.9207,VALID,-0.0339617,VALID,19.6468,VALID,121,VALID,0,
2000-05-05, 00:52:00,VALID,918.814,VALID,0,VALID,94.3645,VALID,0,VALID,19.6341,VALID,113,VALID,0,
2000-05-05, 00:53:00,VALID,918.781,VALID,0,VALID,94.1254,VALID,-0.0169808,VALID,19.6209,VALID,112,VALID,0,
2000-05-05, 00:54:00,VALID,918.762,VALID,0,VALID,93.9805,VALID,-0.0509425,VALID,19.618,VALID,116,VALID,0,
2000-05-05, 00:55:00,VALID,918.732,VALID,0,VALID,94.4052,VALID,-0.0169808,VALID,19.6182,VALID,129,VALID,0,
2000-05-05, 00:56:00,VALID,918.725,VALID,0,VALID,94.5769,VALID,-0.0169808,VALID,19.6341,VALID,149,VALID,0,
2000-05-05, 00:57:00,VALID,918.716,VALID,0,VALID,94.2501,VALID,0,VALID,19.6441,VALID,174,VALID,0.00371094,
2000-05-05, 00:58:00,VALID,918.697,VALID,0,VALID,94.0085,VALID,-0.0339617,VALID,19.6341,VALID,210,VALID,0.317909,
2000-05-05, 00:59:00,VALID,918.693,VALID,0,VALID,94.0771,VALID,-0.0339617,VALID,19.6147,VALID,221,VALID,0.240132,
2000-05-05, 01:00:00,VALID,918.694,VALID,0,VALID,94.3175,VALID,-0.0169808,VALID,19.5988,VALID,223,VALID,0.0152344,
2000-05-05, 01:01:00,VALID,918.676,VALID,0,VALID,94.3963,VALID,-0.0339617,VALID,19.5727,VALID,223,VALID,0,
2000-05-05, 01:02:00,VALID,918.681,VALID,0,VALID,94.7015,VALID,-0.0509425,VALID,19.5501,VALID,223,VALID,0,
2000-05-05, 01:03:00,VALID,918.661,VALID,0,VALID,94.6608,VALID,0,VALID,19.5278,VALID,223,VALID,0,
2000-05-05, 01:04:00,VALID,918.646,VALID,0,VALID,94.7892,VALID,0,VALID,19.4917,VALID,223,VALID,0,
2000-05-05, 01:05:00,VALID,918.626,VALID,0,VALID,94.8147,VALID,-0.0169808,VALID,19.4597,VALID,230,VALID,0,
2000-05-05, 01:06:00,VALID,918.626,VALID,0,VALID,95.0448,VALID,-0.0169808,VALID,19.4465,VALID,234,VALID,0,
2000-05-05, 01:07:00,VALID,918.616,VALID,0,VALID,95.2851,VALID,-0.0339617,VALID,19.4532,VALID,239,VALID,0,
2000-05-05, 01:08:00,VALID,918.608,VALID,0,VALID,95.3207,VALID,0.0509425,VALID,19.4455,VALID,238,VALID,0,
2000-05-05, 01:09:00,VALID,918.585,VALID,0,VALID,95.4517,VALID,0.0679233,VALID,19.4547,VALID,237,VALID,0,
2000-05-05, 01:10:00,VALID,918.581,VALID,0,VALID,95.2216,VALID,0.0849042,VALID,19.4552,VALID,237,VALID,0,
2000-05-05, 01:11:00,VALID,918.58,VALID,0,VALID,95.1224,VALID,0.0509425,VALID,19.455,VALID,237,VALID,0,
2000-05-05, 01:12:00,VALID,918.554,VALID,0,VALID,95.2025,VALID,0.0849042,VALID,19.4393,VALID,237,VALID,0,
2000-05-05, 01:13:00,VALID,918.542,VALID,0,VALID,95.1351,VALID,0.0509425,VALID,19.3968,VALID,233,VALID,0,
2000-05-05, 01:14:00,VALID,918.523,VALID,0,VALID,95.1923,VALID,0.0849042,VALID,19.371,VALID,230,VALID,0,
2000-05-05, 01:15:00,VALID,918.513,VALID,0,VALID,95.2661,VALID,0.0679233,VALID,19.3742,VALID,230,VALID,0,
2000-05-05, 01:16:00,VALID,918.509,VALID,0,VALID,95.2254,VALID,0.0509425,VALID,19.3809,VALID,230,VALID,0,
2000-05-05, 01:17:00,VALID,918.509,VALID,0,VALID,95.069,VALID,-0.0339617,VALID,19.3916,VALID,230,VALID,0,
2000-05-05, 01:18:00,VALID,918.514,VALID,0,VALID,95.0563,VALID,-0.0169808,VALID,19.4144,VALID,230,VALID,0,
2000-05-05, 01:19:00,VALID,918.499,VALID,0,VALID,94.9685,VALID,0,VALID,19.4274,VALID,230,VALID,0,
2000-05-05, 01:20:00,VALID,918.51,VALID,0,VALID,94.8134,VALID,-0.0339617,VALID,19.4311,VALID,229,VALID,0,
2000-05-05, 01:21:00,VALID,918.507,VALID,0,VALID,94.7333,VALID,0,VALID,19.3918,VALID,229,VALID,0,
2000-05-05, 01:22:00,VALID,918.52,VALID,0,VALID,94.6214,VALID,0.0169808,VALID,19.369,VALID,188,VALID,0,
2000-05-05, 01:23:00,VALID,918.524,VALID,0,VALID,94.8744,VALID,0.101885,VALID,19.3518,VALID,140,VALID,0,
2000-05-05, 01:24:00,VALID,918.529,VALID,0,VALID,95.0194,VALID,0.101885,VALID,19.3325,VALID,95,VALID,0,
2000-05-05, 01:25:00,VALID,918.518,VALID,0,VALID,95.1249,VALID,0.0849042,VALID,19.3329,VALID,95,VALID,0,
2000-05-05, 01:26:00,VALID,918.513,VALID,0,VALID,95.1415,VALID,0.101885,VALID,19.3357,VALID,95,VALID,0,
2000-05-05, 01:27:00,VALID,918.503,VALID,0,VALID,95.1656,VALID,0.101885,VALID,19.3521,VALID,95,VALID,0,
2000-05-05, 01:28:00,VALID,918.495,VALID,0,VALID,95.2305,VALID,0.0849042,VALID,19.3685,VALID,95,VALID,0,
2000-05-05, 01:29:00,VALID,918.493,VALID,0,VALID,95.1809,VALID,0.0509425,VALID,19.3906,VALID,95,VALID,0,
2000-05-05, 01:30:00,VALID,918.473,VALID,0,VALID,95.1402,VALID,0.0849042,VALID,19.4207,VALID,95,VALID,0,
2000-05-05, 01:31:00,VALID,918.48,VALID,0,VALID,95.0079,VALID,0.0849042,VALID,19.443,VALID,95,VALID,0,
2000-05-05, 01:32:00,VALID,918.478,VALID,0,VALID,94.9596,VALID,0.0679233,VALID,19.4721,VALID,95,VALID,0,
2000-05-05, 01:33:00,VALID,918.47,VALID,0,VALID,94.7752,VALID,0.0339617,VALID,19.4811,VALID,95,VALID,0,
2000-05-05, 01:34:00,VALID,918.448,VALID,0,VALID,94.7663,VALID,0.0679233,VALID,19.5007,VALID,103,VALID,0,
2000-05-05, 01:35:00,VALID,918.438,VALID,0,VALID,94.6722,VALID,0.0849042,VALID,19.5233,VALID,105,VALID,0,
2000-05-05, 01:36:00,VALID,918.427,VALID,0,VALID,94.7142,VALID,0.101885,VALID,19.5298,VALID,105,VALID,0,
2000-05-05, 01:37:00,VALID,918.43,VALID,0,VALID,94.5947,VALID,0.0509425,VALID,19.5531,VALID,105,VALID,0,
2000-05-05, 01:38:00,VALID,918.426,VALID,0,VALID,94.6315,VALID,-0.0679233,VALID,19.531,VALID,104,VALID,0,
2000-05-05, 01:39:00,VALID,918.435,VALID,0,VALID,94.7256,VALID,-0.0169808,VALID,19.5181,VALID,96,VALID,0,
2000-05-05, 01:40:00,VALID,918.429,VALID,0,VALID,94.5603,VALID,-0.0169808,VALID,19.4954,VALID,102,VALID,0,
2000-05-05, 01:41:00,VALID,918.427,VALID,0,VALID,94.5807,VALID,0,VALID,19.4562,VALID,106,VALID,0,
2000-05-05, 01:42:00,VALID,918.42,VALID,0,VALID,94.7854,VALID,0,VALID,19.4281,VALID,111,VALID,0.0446715,
2000-05-05, 01:43:00,VALID,918.424,VALID,0,VALID,95.1554,VALID,-0.0339617,VALID,19.4184,VALID,117,VALID,0.624794,
2000-05-05, 01:44:00,VALID,918.418,VALID,0,VALID,95.1682,VALID,-0.0339617,VALID,19.4346,VALID,112,VALID,0.5875,
2000-05-05, 01:45:00,VALID,918.422,VALID,0,VALID,95.0753,VALID,-0.0339617,VALID,19.4574,VALID,111,VALID,0.414648,
2000-05-05, 01:46:00,VALID,918.412,VALID,0,VALID,94.9927,VALID,-0.0339617,VALID,19.4733,VALID,111,VALID,0.401042,
2000-05-05, 01:47:00,VALID,918.415,VALID,0,VALID,94.8452,VALID,-0.0169808,VALID,19.4733,VALID,111,VALID,0.467105,
2000-05-05, 01:48:00,VALID,918.426,VALID,0,VALID,95.0702,VALID,-0.0169808,VALID,19.4862,VALID,108,VALID,0.501172,
2000-05-05, 01:49:00,VALID,918.413,VALID,0,VALID,94.9571,VALID,-0.0339617,VALID,19.4927,VALID,107,VALID,0.304102,
2000-05-05, 01:50:00,VALID,918.419,VALID,0,VALID,94.9164,VALID,-0.0169808,VALID,19.4897,VALID,107,VALID,0.316907,
2000-05-05, 01:51:00,VALID,918.405,VALID,0,VALID,94.9545,VALID,-0.0169808,VALID,19.4639,VALID,107,VALID,0.348273,
2000-05-05, 01:52:00,VALID,918.403,VALID,0,VALID,95.0588,VALID,-0.0849042,VALID,19.4477,VALID,107,VALID,0.171289,
2000-05-05, 01:53:00,VALID,918.406,VALID,0,VALID,95.0944,VALID,-0.0169808,VALID,19.4403,VALID,107,VALID,0.05,
2000-05-05, 01:54:00,VALID,918.398,VALID,0,VALID,95.2076,VALID,-0.0509425,VALID,19.4442,VALID,107,VALID,0,
2000-05-05, 01:55:00,VALID,918.4,VALID,0,VALID,95.2928,VALID,-0.0169808,VALID,19.4634,VALID,107,VALID,0,
2000-05-05, 01:56:00,VALID,918.396,VALID,0,VALID,95.1745,VALID,-0.0169808,VALID,19.4962,VALID,104,VALID,0.00117188,
2000-05-05, 01:57:00,VALID,918.386,VALID,0,VALID,94.9291,VALID,-0.0169808,VALID,19.4887,VALID,107,VALID,0,
2000-05-05, 01:58:00,VALID,918.378,VALID,0,VALID,94.9215,VALID,-0.0339617,VALID,19.522,VALID,115,VALID,0,
2000-05-05, 01:59:00,VALID,918.367,VALID,0,VALID,94.9062,VALID,-0.0169808,VALID,19.528,VALID,130,VALID,0,
2000-05-05, 02:00:00,VALID,918.355,VALID,0,VALID,94.793,VALID,0,VALID,19.5384,VALID,122,VALID,0.130078,
2000-05-05, 02:01:00,VALID,918.336,VALID,0,VALID,95.0194,VALID,0,VALID,19.5479,VALID,91,VALID,0.216992,
2000-05-05, 02:02:00,VALID,918.328,VALID,0,VALID,94.8731,VALID,-0.0339617,VALID,19.574,VALID,111,VALID,0,
2000-05-05, 02:03:00,VALID,918.307,VALID,0,VALID,94.9342,VALID,-0.0339617,VALID,19.6058,VALID,106,VALID,0,
2000-05-05, 02:04:00,VALID,918.313,VALID,0,VALID,94.4967,VALID,0,VALID,19.6257,VALID,105,VALID,0,
2000-05-05, 02:05:00,VALID,918.31,VALID,0,VALID,94.1966,VALID,-0.0509425,VALID,19.6219,VALID,89,VALID,0,
2000-05-05, 02:06:00,VALID,918.311,VALID,0,VALID,94.1852,VALID,-0.0169808,VALID,19.6252,VALID,79,VALID,0,
2000-05-05, 02:07:00,VALID,918.306,VALID,0,VALID,94.0326,VALID,-0.0849042,VALID,19.6286,VALID,79,VALID,0,
2000-05-05, 02:08:00,VALID,918.31,VALID,0,VALID,94.0326,VALID,-0.0169808,VALID,19.6219,VALID,81,VALID,0,
2000-05-05, 02:09:00,VALID,918.291,VALID,0,VALID,94.264,VALID,-0.0339617,VALID,19.6316,VALID,107,VALID,0,
2000-05-05, 02:10:00,VALID,918.283,VALID,0,VALID,94.5718,VALID,-0.0169808,VALID,19.6408,VALID,108,VALID,0,
2000-05-05, 02:11:00,VALID,918.267,VALID,0,VALID,94.4408,VALID,-0.0169808,VALID,19.6605,VALID,109,VALID,0,
2000-05-05, 02:12:00,VALID,918.263,VALID,0,VALID,94.5527,VALID,0,VALID,19.6833,VALID,92,VALID,0,
2000-05-05, 02:13:00,VALID,918.248,VALID,0,VALID,94.4433,VALID,0,VALID,19.7223,VALID,92,VALID,0,
2000-05-05, 02:14:00,VALID,918.252,VALID,0,VALID,94.2564,VALID,-0.0169808,VALID,19.7313,VALID,95,VALID,0,
2000-05-05, 02:15:00,VALID,918.25,VALID,0,VALID,94.3518,VALID,0,VALID,19.7571,VALID,78,VALID,0.160979,
2000-05-05, 02:16:00,VALID,918.244,VALID,0,VALID,94.1852,VALID,0,VALID,19.7929,VALID,81,VALID,0.205859,
2000-05-05, 02:17:00,VALID,918.23,VALID,0,VALID,94.1127,VALID,0,VALID,19.8222,VALID,83,VALID,0.00390625,
2000-05-05, 02:18:00,VALID,918.235,VALID,0,VALID,93.8737,VALID,-0.0169808,VALID,19.8257,VALID,83,VALID,0,
2000-05-05, 02:19:00,VALID,918.222,VALID,0,VALID,93.8012,VALID,-0.0169808,VALID,19.8386,VALID,83,VALID,0,
2000-05-05, 02:20:00,VALID,918.209,VALID,0,VALID,93.7134,VALID,-0.0339617,VALID,19.8384,VALID,94,VALID,0,
2000-05-05, 02:21:00,VALID,918.193,VALID,0,VALID,93.7236,VALID,-0.0169808,VALID,19.8317,VALID,122,VALID,0,
2000-05-05, 02:22:00,VALID,918.185,VALID,0,VALID,93.7719,VALID,-0.0169808,VALID,19.8317,VALID,122,VALID,0,
2000-05-05, 02:23:00,VALID,918.165,VALID,0,VALID,93.8114,VALID,-0.0509425,VALID,19.8282,VALID,122,VALID,0,
2000-05-05, 02:24:00,VALID,918.166,VALID,0,VALID,93.7554,VALID,-0.0339617,VALID,19.8314,VALID,122,VALID,0,
2000-05-05, 02:25:00,VALID,918.145,VALID,0,VALID,93.5659,VALID,-0.0339617,VALID,19.8093,VALID,144,VALID,0,
2000-05-05, 02:26:00,VALID,918.13,VALID,0,VALID,93.6282,VALID,-0.0679233,VALID,19.7902,VALID,196,VALID,0,
2000-05-05, 02:27:00,VALID,918.131,VALID,0,VALID,93.6893,VALID,-0.0849042,VALID,19.7512,VALID,196,VALID,0,
2000-05-05, 02:28:00,VALID,918.12,VALID,0,VALID,93.7707,VALID,-0.0679233,VALID,19.7189,VALID,196,VALID,0,
2000-05-05, 02:29:00,VALID,918.106,VALID,0,VALID,94.1801,VALID,-0.0169808,VALID,19.6905,VALID,196,VALID,0,
2000-05-05, 02:30:00,VALID,918.098,VALID,0,VALID,94.1521,VALID,-0.0849042,VALID,19.6542,VALID,196,VALID,0,
2000-05-05, 02:31:00,VALID,918.083,VALID,0,VALID,93.5062,VALID,-0.0169808,VALID,19.612,VALID,171,VALID,0.0518092,
2000-05-05, 02:32:00,VALID,918.075,VALID,0,VALID,93.3739,VALID,-0.0509425,VALID,19.5307,VALID,139,VALID,0,
2000-05-05, 02:33:00,VALID,918.077,VALID,0,VALID,94.025,VALID,-0.0169808,VALID,19.4539,VALID,131,VALID,0,
2000-05-05, 02:34:00,VALID,918.078,VALID,0,VALID,94.6646,VALID,-0.0169808,VALID,19.3926,VALID,125,VALID,0,
2000-05-05, 02:35:00,VALID,918.086,VALID,0,VALID,95.0117,VALID,-0.0679233,VALID,19.3406,VALID,123,VALID,0.0561266,
2000-05-05, 02:36:00,VALID,918.08,VALID,0,VALID,95.3856,VALID,-0.0509425,VALID,19.3277,VALID,98,VALID,0.217969,
2000-05-05, 02:37:00,VALID,918.074,VALID,0,VALID,95.6196,VALID,-0.0679233,VALID,19.3441,VALID,93,VALID,0.0015625,
2000-05-05, 02:38:00,VALID,918.067,VALID,0,VALID,96.0443,VALID,-0.0679233,VALID,19.3868,VALID,90,VALID,0.406851,
2000-05-05, 02:39:00,VALID,918.072,VALID,0,VALID,95.8281,VALID,-0.0509425,VALID,19.4055,VALID,91,VALID,0.0637336,
2000-05-05, 02:40:00,VALID,918.073,VALID,0,VALID,95.6386,VALID,-0.0339617,VALID,19.4219,VALID,93,VALID,0,
2000-05-05, 02:41:00,VALID,918.071,VALID,0,VALID,95.3068,VALID,-0.0169808,VALID,19.4348,VALID,93,VALID,0,
2000-05-05, 02:42:00,VALID,918.076,VALID,0,VALID,95.1516,VALID,-0.0679233,VALID,19.4507,VALID,93,VALID,0,
2000-05-05, 02:43:00,VALID,918.057,VALID,0,VALID,95.3665,VALID,-0.0169808,VALID,19.4733,VALID,93,VALID,0,
2000-05-05, 02:44:00,VALID,918.052,VALID,0,VALID,95.4695,VALID,-0.0169808,VALID,19.5026,VALID,93,VALID,0,
2000-05-05, 02:45:00,VALID,918.042,VALID,0,VALID,95.3678,VALID,-0.0509425,VALID,19.5317,VALID,93,VALID,0,
2000-05-05, 02:46:00,VALID,918.025,VALID,0,VALID,95.0677,VALID,-0.0339617,VALID,19.5509,VALID,93,VALID,0,
2000-05-05, 02:47:00,VALID,918.008,VALID,0,VALID,94.6036,VALID,-0.0509425,VALID,19.5605,VALID,93,VALID,0,
2000-05-05, 02:48:00,VALID,917.981,VALID,0,VALID,94.2653,VALID,0,VALID,19.5476,VALID,93,VALID,0.198047,
2000-05-05, 02:49:00,VALID,917.979,VALID,0,VALID,94.3988,VALID,-0.0339617,VALID,19.5156,VALID,93,VALID,0.320508,
2000-05-05, 02:50:00,VALID,917.966,VALID,0,VALID,95.1491,VALID,-0.0339617,VALID,19.5051,VALID,92,VALID,0.477163,
2000-05-05, 02:51:00,VALID,917.96,VALID,0,VALID,95.1771,VALID,-0.0169808,VALID,19.4925,VALID,92,VALID,0.476357,
2000-05-05, 02:52:00,VALID,917.949,VALID,0,VALID,95.2839,VALID,-0.0679233,VALID,19.477,VALID,93,VALID,0.573047,
2000-05-05, 02:53:00,VALID,917.94,VALID,0,VALID,95.645,VALID,0,VALID,19.4865,VALID,82,VALID,0.735156,
2000-05-05, 02:54:00,VALID,917.935,VALID,0,VALID,95.6488,VALID,-0.0679233,VALID,19.4927,VALID,79,VALID,0.452524,
2000-05-05, 02:55:00,VALID,917.904,VALID,0,VALID,95.7836,VALID,-0.0169808,VALID,19.5054,VALID,88,VALID,0.497533,
2000-05-05, 02:56:00,VALID,917.881,VALID,0,VALID,95.701,VALID,-0.0509425,VALID,19.5282,VALID,98,VALID,0.130664,
2000-05-05, 02:57:00,VALID,917.852,VALID,0,VALID,95.5064,VALID,-0.0849042,VALID,19.5379,VALID,98,VALID,0,
2000-05-05, 02:58:00,VALID,917.834,VALID,0,VALID,95.1872,VALID,-0.0169808,VALID,19.5382,VALID,98,VALID,0,
2000-05-05, 02:59:00,VALID,917.818,VALID,0,VALID,95.13,VALID,-0.0679233,VALID,19.529,VALID,97,VALID,0,
2000-05-05, 03:00:00,VALID,917.798,VALID,0,VALID,95.3271,VALID,-0.0509425,VALID,19.5188,VALID,92,VALID,0,
2000-05-05, 03:01:00,VALID,917.782,VALID,0,VALID,95.6094,VALID,-0.0339617,VALID,19.5382,VALID,84,VALID,0.367578,
2000-05-05, 03:02:00,VALID,917.782,VALID,0,VALID,95.7251,VALID,-0.0169808,VALID,19.5541,VALID,76,VALID,0.472556,
2000-05-05, 03:03:00,VALID,917.773,VALID,0,VALID,95.9159,VALID,-0.0509425,VALID,19.6028,VALID,78,VALID,0.634046,
2000-05-05, 03:04:00,VALID,917.763,VALID,0,VALID,95.8218,VALID,-0.0169808,VALID,19.6513,VALID,80,VALID,0.511914,
2000-05-05, 03:05:00,VALID,917.744,VALID,0,VALID,95.5852,VALID,-0.0679233,VALID,19.7,VALID,86,VALID,0.408594,
2000-05-05, 03:06:00,VALID,917.739,VALID,0,VALID,95.2088,VALID,-0.0339617,VALID,19.7223,VALID,87,VALID,0.349359,
2000-05-05, 03:07:00,VALID,917.717,VALID,0,VALID,94.9418,VALID,-0.0509425,VALID,19.7323,VALID,87,VALID,0.331003,
2000-05-05, 03:08:00,VALID,917.693,VALID,0,VALID,94.9978,VALID,-0.0679233,VALID,19.7449,VALID,87,VALID,0.332422,
2000-05-05, 03:09:00,VALID,917.677,VALID,0,VALID,95.0079,VALID,-0.0679233,VALID,19.7382,VALID,89,VALID,0.119531,
2000-05-05, 03:10:00,VALID,917.67,VALID,0,VALID,94.9482,VALID,-0.0679233,VALID,19.7519,VALID,92,VALID,0,
2000-05-05, 03:11:00,VALID,917.641,VALID,0,VALID,94.8668,VALID,-0.0339617,VALID,19.7449,VALID,92,VALID,0,
2000-05-05, 03:12:00,VALID,917.617,VALID,0,VALID,94.9176,VALID,-0.0509425,VALID,19.7512,VALID,117,VALID,0,
2000-05-05, 03:13:00,VALID,917.595,VALID,0,VALID,95.1567,VALID,-0.0509425,VALID,19.7743,VALID,126,VALID,0,
2000-05-05, 03:14:00,VALID,917.574,VALID,0,VALID,94.9469,VALID,-0.0509425,VALID,19.7899,VALID,128,VALID,0,
2000-05-05, 03:15:00,VALID,917.556,VALID,0,VALID,94.5985,VALID,-0.0679233,VALID,19.7872,VALID,130,VALID,0,
2000-05-05, 03:16:00,VALID,917.539,VALID,0,VALID,94.4192,VALID,-0.0849042,VALID,19.7611,VALID,130,VALID,0,
2000-05-05, 03:17:00,VALID,917.519,VALID,0,VALID,94.3899,VALID,-0.0509425,VALID,19.7226,VALID,149,VALID,0,
2000-05-05, 03:18:00,VALID,917.497,VALID,0,VALID,94.5552,VALID,-0.0679233,VALID,19.6639,VALID,204,VALID,0,
2000-05-05, 03:19:00,VALID,917.483,VALID,0,VALID,94.5819,VALID,-0.0509425,VALID,19.6055,VALID,204,VALID,0,
2000-05-05, 03:20:00,VALID,917.46,VALID,0,VALID,94.629,VALID,-0.0339617,VALID,19.5675,VALID,205,VALID,0,
2000-05-05, 03:21:00,VALID,917.461,VALID,0,VALID,94.7358,VALID,-0.0509425,VALID,19.5089,VALID,207,VALID,0,
2000-05-05, 03:22:00,VALID,917.461,VALID,0,VALID,94.8795,VALID,-0.0679233,VALID,19.4572,VALID,213,VALID,0,
2000-05-05, 03:23:00,VALID,917.46,VALID,0,VALID,95.1224,VALID,-0.0509425,VALID,19.4186,VALID,218,VALID,0,
2000-05-05, 03:24:00,VALID,917.46,VALID,0,VALID,95.6895,VALID,-0.0339617,VALID,19.4027,VALID,224,VALID,0,
2000-05-05, 03:25:00,VALID,917.472,VALID,0,VALID,95.6832,VALID,0,VALID,19.3506,VALID,229,VALID,0,
2000-05-05, 03:26:00,VALID,917.451,VALID,0,VALID,95.5433,VALID,-0.0169808,VALID,19.3021,VALID,229,VALID,0,
2000-05-05, 03:27:00,VALID,917.461,VALID,0,VALID,95.8078,VALID,-0.0169808,VALID,19.2728,VALID,229,VALID,0,
2000-05-05, 03:28:00,VALID,917.445,VALID,0,VALID,96.2325,VALID,0,VALID,19.2564,VALID,229,VALID,0,
2000-05-05, 03:29:00,VALID,917.433,VALID,0,VALID,96.5885,VALID,-0.0339617,VALID,19.2469,VALID,229,VALID,0,
2000-05-05, 03:30:00,VALID,917.423,VALID,0,VALID,96.937,VALID,-0.0169808,VALID,19.2703,VALID,229,VALID,0,
2000-05-05, 03:31:00,VALID,917.426,VALID,0,VALID,97.1671,VALID,-0.0169808,VALID,19.2994,VALID,229,VALID,0,
2000-05-05, 03:32:00,VALID,917.416,VALID,0,VALID,97.045,VALID,0,VALID,19.2954,VALID,229,VALID,0,
2000-05-05, 03:33:00,VALID,917.426,VALID,0,VALID,97.0082,VALID,-0.0509425,VALID,19.3056,VALID,229,VALID,0,
2000-05-05, 03:34:00,VALID,917.41,VALID,0,VALID,97.1582,VALID,-0.0339617,VALID,19.3148,VALID,229,VALID,0,
2000-05-05, 03:35:00,VALID,917.407,VALID,0,VALID,97.4354,VALID,-0.0169808,VALID,19.3598,VALID,229,VALID,0,
2000-05-05, 03:36:00,VALID,917.4,VALID,0,VALID,97.4825,VALID,-0.0169808,VALID,19.4152,VALID,229,VALID,0,
2000-05-05, 03:37:00,VALID,917.382,VALID,0,VALID,97.3388,VALID,-0.0169808,VALID,19.4343,VALID,229,VALID,0,
2000-05-05, 03:38:00,VALID,917.374,VALID,0,VALID,97.115,VALID,-0.0339617,VALID,19.4574,VALID,229,VALID,0,
2000-05-05, 03:39:00,VALID,917.369,VALID,0,VALID,96.9815,VALID,-0.0339617,VALID,19.4835,VALID,229,VALID,0,
2000-05-05, 03:40:00,VALID,917.356,VALID,0,VALID,96.628,VALID,-0.0339617,VALID,19.483,VALID,229,VALID,0,
2000-05-05, 03:41:00,VALID,917.359,VALID,0,VALID,96.3431,VALID,0,VALID,19.4925,VALID,229,VALID,0,